Kodiak, AK

6:40 AM AKST on January 16, 2018 (GMT -0900)
Kodiak

Weather History for PADQ - November, 2012

Change the Weather History Date:

Tuesday, November 20, 2012

  Actual Average Record
Temperature  
Mean Temperature 28 °F 33 °F  
Max Temperature 30 °F 38 °F 50 °F (1935)
Min Temperature 25 °F 28 °F 4 °F (1922)
Degree Days  
Heating Degree Days 37 32  
Month to date heating degree days 597 608  
Since 1 July heating degree days 2611 2470  
Cooling Degree Days 0 0  
Month to date cooling degree days 0 0  
Year to date cooling degree days 0 1  
Moisture  
Dew Point 22 °F    
Average Humidity 0    
Maximum Humidity 0    
Minimum Humidity 0    
Precipitation  
Precipitation T in 0.22 in 2.04 in (1988)
Month to date precipitation 3.46 4.43  
Year to date precipitation 51.22 66.83  
Snow  
Snow T in 0.20 in 5.70 in (2011)
Month to date snowfall 3.8 3.2  
Since 1 July snowfall 4.2 4.3  
Since 1 September snowfall 4.2 4.3  
Snow Depth 3.00 in    
Sea Level Pressure  
Sea Level Pressure 29.50 in    
Wind  
Wind Speed 19 mph (WNW)    
Max Wind Speed 30 mph    
Max Gust Speed 39 mph    
Visibility 6 miles    
Events Snow    
T = Trace of Precipitation, MM = Missing Value Source: NWS Daily Summary

Daily Weather History Graph

Daily Weather History Graph

Search for Another Location

Airport or City:

Trip Planner

Search our weather history database for the weather conditions in past years. The results will help you decide how hot, cold, wet, or windy it might be!

Date:

Astronomy

Nov. 20, 2012 Rise Set
Actual Time 9:07 AM AKST 4:43 PM AKST
Civil Twilight 8:21 AM AKST 5:29 PM AKST
Nautical Twilight 7:32 AM AKST 6:18 PM AKST
Astronomical Twilight 6:45 AM AKST 7:04 PM AKST
Moon 1:58 PM AKST (11/20) 12:02 AM AKST (11/20)
Length of Visible Light 9h 08m
Length of Day
7h 35m
First Quarter, 53% of the Moon is Illuminated
Nov 20
First Quarter
Nov 28
Full
Dec 6
Last Quarter
Dec 12
New
Dec 19
First Quarter

Hourly Weather History & Observations

Time (AKST) Temp. Windchill Dew Point Humidity Pressure Visibility Wind Dir Wind Speed Gust Speed Precip Events Conditions
12:53 AM 28.9 °F 16.9 °F 19.9 °F 69% 29.44 in 10.0 mi NW 17.3 mph 25.3 mph N/A   Clear
1:53 AM 28.9 °F 16.9 °F 19.0 °F 67% 29.45 in 10.0 mi WNW 17.3 mph 26.5 mph N/A   Clear
2:53 AM 28.0 °F 16.5 °F 19.0 °F 69% 29.47 in 10.0 mi WNW 15.0 mph 21.9 mph N/A   Clear
3:53 AM 28.0 °F 16.1 °F 19.0 °F 69% 29.48 in 10.0 mi WNW 16.1 mph 23.0 mph N/A   Clear
4:53 AM 26.1 °F 14.5 °F 19.0 °F 75% 29.49 in 10.0 mi WNW 13.8 mph 21.9 mph N/A   Clear
5:53 AM 25.0 °F 11.7 °F 18.0 °F 75% 29.50 in 10.0 mi WNW 17.3 mph 26.5 mph N/A   Clear
6:53 AM 25.0 °F 12.6 °F 18.0 °F 75% 29.50 in 10.0 mi WNW 15.0 mph - N/A   Scattered Clouds
7:53 AM 25.0 °F 13.1 °F 19.0 °F 78% 29.51 in 10.0 mi WNW 13.8 mph 24.2 mph N/A   Scattered Clouds
8:53 AM 25.0 °F 11.7 °F 19.0 °F 78% 29.52 in 10.0 mi WNW 17.3 mph - N/A   Mostly Cloudy
9:53 AM 26.1 °F 13.6 °F 19.9 °F 78% 29.52 in 10.0 mi WNW 16.1 mph - N/A   Overcast
10:53 AM 26.1 °F 13.1 °F 19.0 °F 75% 29.53 in 10.0 mi WNW 17.3 mph 25.3 mph N/A   Overcast
11:53 AM 27.0 °F 13.9 °F 19.9 °F 75% 29.53 in 6.0 mi WNW 18.4 mph 24.2 mph 0.00 in Snow Light Snow
12:53 PM 27.0 °F 13.9 °F 21.0 °F 78% 29.52 in 6.0 mi WNW 18.4 mph 26.5 mph 0.00 in Snow Light Snow
1:53 PM 28.0 °F 13.9 °F 21.9 °F 78% 29.50 in 6.0 mi WNW 23.0 mph 28.8 mph 0.00 in Snow Light Snow
2:53 PM 28.0 °F 14.3 °F 21.9 °F 78% 29.51 in 6.0 mi WNW 21.9 mph 29.9 mph 0.00 in Snow Light Snow
3:53 PM 28.9 °F 14.5 °F 23.0 °F 78% 29.50 in 9.0 mi WNW 25.3 mph 33.4 mph 0.00 in Snow Light Snow
4:53 PM 28.9 °F 15.4 °F 24.1 °F 82% 29.50 in 3.0 mi WNW 21.9 mph 31.1 mph 0.00 in Snow Light Snow
5:15 PM 28.4 °F 15.1 °F 24.8 °F 86% 29.49 in 2.0 mi WNW 20.7 mph 29.9 mph 0.00 in Snow Light Snow
5:53 PM 28.9 °F 15.1 °F 25.0 °F 85% 29.50 in 3.0 mi WNW 23.0 mph 34.5 mph 0.00 in Snow Light Snow
6:28 PM 30.2 °F 16.2 °F 24.8 °F 80% 29.50 in 5.0 mi WNW 25.3 mph 34.5 mph 0.00 in Snow Light Snow
6:53 PM 30.0 °F 17.2 °F 24.1 °F 79% 29.51 in 5.0 mi WNW 20.7 mph 31.1 mph 0.00 in Snow Light Snow
7:17 PM 30.2 °F 17.1 °F 24.8 °F 80% 29.50 in 5.0 mi WNW 21.9 mph 36.8 mph 0.00 in Snow Light Snow
7:53 PM 30.0 °F 17.2 °F 25.0 °F 82% 29.50 in 5.0 mi WNW 20.7 mph 33.4 mph 0.00 in Snow Light Snow
8:53 PM 30.2 °F 15.7 °F 24.8 °F 80% 29.49 in 5.0 mi WNW 27.6 mph 34.5 mph 0.00 in Snow Light Snow
9:53 PM 30.0 °F 17.5 °F 25.0 °F 82% 29.51 in 6.0 mi WNW 19.6 mph 34.5 mph 0.00 in Snow Light Snow
10:53 PM 30.0 °F 16.3 °F 26.1 °F 85% 29.52 in 4.0 mi NW 24.2 mph 31.1 mph 0.00 in Snow Light Snow
11:03 PM 30.2 °F 16.2 °F 24.8 °F 80% 29.51 in 1.0 mi WNW 25.3 mph 38.0 mph 0.00 in Snow Light Snow
11:12 PM 30.2 °F 16.2 °F 26.6 °F 86% 29.51 in 0.8 mi WNW 25.3 mph 38.0 mph 0.00 in Snow Light Snow
11:36 PM 30.2 °F 16.5 °F 26.6 °F 86% 29.52 in 1.5 mi WNW 24.2 mph 34.5 mph 0.00 in Snow Light Snow
11:40 PM 30.2 °F 16.5 °F 26.6 °F 86% 29.52 in 3.0 mi WNW 24.2 mph 34.5 mph 0.00 in Snow Light Snow
11:53 PM 30.0 °F 17.5 °F 26.1 °F 85% 29.53 in 3.0 mi WNW 19.6 mph 33.4 mph 0.00 in Snow Light Snow